sat.trackr.live / text

‹ back to catalog

BUFENG 1B

NORAD 44311 · 2019-032B

PAYLOAD ACTIVE UNKNOWN

§ Identity

Operator
Country
PRC
Launch date
2019-06-05
Launch site
YSLA
Launch vehicle
Mass (kg)
RCS (m²)

External: N2YO · Heavens-Above · Gunter

§ Orbital elements

Epoch: 2026-05-25T04:46:06.350304Z

Period
94.29 min
Inclination
44.9693°
Eccentricity
0.0025077
Mean motion
15.27252905 rev/d
Perigee alt
466.8 km
Apogee alt
501.2 km
Semi-major
6,862.2 km
B*
2.6109e-4
RAAN
135.5899°
Arg perigee
198.8984°
Mean anomaly
161.0970°
Rev number
38,423

§ Raw data

BUFENG 1B1 44311U 19032B   26145.19868461  .00006869  00000+0  26109-3 0  99982 44311  44.9693 135.5899 0025077 198.8984 161.0970 15.27252905384230

JSON: /api/v1/satellites/44311 · /tle

For live sub-satellite position, see the globe view (requires WebGL).

§ Visibility from observer

Set your observer location to see the next 7 days of passes ≥ 10°. The values pass through the URL so the page stays shareable.

No JS? Fill the form by hand. The geolocation button needs JavaScript.